Hay-On-Wye, United Kingdom
Current Conditions -  °F | °C
As of 5:20 PM on Thursday 18 Dec 2014 (Local Time) from EGBJ Reporting Station
Broken Clouds Broken Clouds  
Wind Chill: 54°   Ceiling: 1800
Heat Index: 54°   Visibility: 6mi
Dew Point: 52°   Wind: 14mph
Humidity: 94%   Direction: 210°SSW
Pressure: 29.77"   Gusts: NA
Location:  52.07°N, 3.13°W
Report Text: EGBJ 181720Z 21012KT 9999 FEW011 BKN018 12/11 Q1008
Loading
Personal Weather Stations






























Interactive Weather Map New forecast layout! Learn more

10-Day Weather Forecast

Advertisements
Track Severe Weather on mobile